GW6857 Weather Reports


time (UTC)temp
F
wind
direction
speed
knots
gust
knots
rain 1hr
in
rain 24hr
in
rain mn
in
humidity
%
barometer
mb
20260506183022 66 259 4.3 12.2 0.00 0.00 0.00 70 1007.9
20260506182506 66 281 3.5 8.7 0.00 0.00 0.00 71 1007.9
20260506182014 66 254 2.6 14.8 0.00 0.00 0.00 72 1008.0
20260506181524 66 228 4.3 14.8 0.00 0.00 0.00 72 1008.0
20260506181009 66 156 6.1 13.0 0.00 0.00 0.00 72 1008.1
20260506180507 66 239 4.3 12.2 0.00 0.00 0.00 73 1008.1
20260506180028 66 144 5.2 12.2 0.00 0.00 0.00 72 1008.2
20260506175513 67 286 5.2 10.4 0.00 0.00 0.00 71 1008.3
20260506175010 67 185 4.3 11.3 0.00 0.00 0.00 69 1008.4
20260506174515 68 236 3.5 14.8 0.00 0.00 0.00 67 1008.4
20260506174008 68 208 5.2 14.8 0.00 0.00 0.00 67 1008.4
20260506173505 68 204 4.3 16.5 0.00 0.00 0.00 66 1008.5
20260506173020 68 219 6.1 16.5 0.00 0.00 0.00 66 1008.5
20260506172506 69 195 7.0 15.6 0.00 0.00 0.00 67 1008.4
20260506172008 69 291 4.3 13.0 0.00 0.00 0.00 66 1008.3
20260506171525 70 142 2.6 14.8 0.00 0.00 0.00 68 1008.4
20260506171010 70 296 4.3 14.8 0.00 0.00 0.00 66 1008.4
20260506170512 70 202 5.2 9.6 0.00 0.00 0.00 66 1008.5
20260506170026 70 177 5.2 9.6 0.00 0.00 0.00 66 1008.5
20260506165513 69 198 4.3 8.7 0.00 0.00 0.00 70 1008.6
20260506165008 68 210 1.7 7.8 0.00 0.00 0.00 70 1008.6
20260506164527 67 180 2.6 7.0 0.00 0.00 0.00 71 1008.8
20260506164007 67 250 3.5 7.0 0.00 0.00 0.00 69 1009.1
20260506163507 67 182 3.5 9.6 0.00 0.00 0.00 68 1009.4
20260506163018 68 200 3.5 8.7 0.00 0.00 0.00 67 1009.6
20260506162508 68 148 2.6 9.6 0.00 0.00 0.00 67 1009.7
20260506162011 68 190 3.5 9.6 0.00 0.00 0.00 66 1009.9
20260506161524 67 178 2.6 9.6 0.00 0.00 0.00 67 1009.9
20260506161008 67 213 3.5 9.6 0.00 0.00 0.00 67 1010.1
20260506160510 67 228 1.7 9.6 0.00 0.00 0.00 68 1010.1
20260506160025 67 130 1.7 11.3 0.00 0.00 0.00 66 1010.1
20260506155509 67 239 3.5 11.3 0.00 0.00 0.00 66 1010.1
20260506155010 67 270 2.6 10.4 0.00 0.00 0.00 66 1010.0
20260506154530 68 207 2.6 10.4 0.00 0.00 0.00 65 1010.1
20260506154012 68 232 4.3 9.6 0.00 0.00 0.00 63 1010.1
20260506153515 69 144 4.3 9.6 0.00 0.00 0.00 61 1010.1
20260506153014 69 263 2.6 9.6 0.00 0.00 0.00 60 1010.0
20260506152507 69 130 4.3 9.6 0.00 0.00 0.00 59 1010.0
20260506152009 70 229 2.6 12.2 0.00 0.00 0.00 60 1010.1
20260506151520 70 280 2.6 13.9 0.00 0.00 0.00 59 1010.0
20260506151010 69 189 3.5 13.9 0.00 0.00 0.00 59 1010.1
20260506150509 69 281 2.6 7.8 0.00 0.00 0.00 60 1009.9
20260506150024 69 211 4.3 13.0 0.00 0.00 0.00 60 1010.1
20260506145510 69 208 5.2 12.2 0.00 0.00 0.00 59 1010.1
20260506145010 69 216 3.5 12.2 0.00 0.00 0.00 59 1010.0
20260506144527 70 314 5.2 12.2 0.00 0.00 0.00 58 1010.2
20260506144012 70 240 3.5 10.4 0.00 0.00 0.00 58 1010.1
20260506143507 70 90 4.3 8.7 0.00 0.00 0.00 58 1010.1
20260506143030 70 284 3.5 10.4 0.00 0.00 0.00 60 1010.0
20260506142510 70 206 3.5 11.3 0.00 0.00 0.00 58 1010.0
20260506142009 70 240 6.1 13.0 0.00 0.00 0.00 58 1010.0
20260506141518 70 254 4.3 13.0 0.00 0.00 0.00 59 1010.0
20260506141011 70 279 4.3 9.6 0.00 0.00 0.00 59 1010.0
20260506140510 70 212 3.5 9.6 0.00 0.00 0.00 59 1010.0
20260506140022 69 271 3.5 17.4 0.00 0.00 0.00 60 1010.0
20260506135503 69 209 6.1 17.4 0.00 0.00 0.00 60 1009.9
20260506135005 69 175 3.5 13.9 0.00 0.00 0.00 60 1009.9
20260506134508 70 248 3.5 15.6 0.00 0.00 0.00 60 1009.9
20260506134002 70 245 7.0 14.8 0.00 0.00 0.00 59 1010.0
20260506133504 70 179 4.3 13.0 0.00 0.00 0.00 59 1010.0
20260506133011 70 198 6.1 13.0 0.00 0.00 0.00 59 1010.0
20260506132508 70 195 4.3 13.0 0.00 0.00 0.00 60 1010.1
20260506132007 70 249 3.5 13.0 0.00 0.00 0.00 61 1010.2
20260506131522 70 189 3.5 18.2 0.00 0.00 0.00 61 1010.3
20260506131007 69 183 6.1 18.2 0.00 0.00 0.00 61 1010.2
20260506130511 69 264 4.3 10.4 0.00 0.00 0.00 61 1010.1
20260506130022 69 314 3.5 14.8 0.00 0.00 0.00 62 1010.2
20260506125508 69 216 7.0 13.9 0.00 0.00 0.00 62 1010.2
20260506125003 69 206 3.5 17.4 0.00 0.00 0.00 63 1010.2
20260506124506 68 183 7.0 15.6 0.00 0.00 0.00 62 1010.2
20260506124003 68 147 5.2 13.9 0.00 0.00 0.00 63 1010.2
20260506123507 68 219 6.1 13.9 0.00 0.00 0.00 63 1010.2
20260506123014 67 204 4.3 12.2 0.00 0.00 0.00 65 1010.3
20260506122504 67 226 6.1 12.2 0.00 0.00 0.00 65 1010.4
20260506122003 66 213 3.5 13.9 0.00 0.00 0.00 66 1010.4
20260506121514 66 173 6.1 13.9 0.00 0.00 0.00 66 1010.4
20260506121007 66 227 5.2 9.6 0.00 0.00 0.00 67 1010.4
20260506120507 66 199 4.3 11.3 0.00 0.00 0.00 67 1010.3
20260506120027 66 204 5.2 13.0 0.00 0.00 0.00 67 1010.4
20260506115509 66 207 3.5 13.0 0.00 0.00 0.00 68 1010.4
20260506115012 65 161 4.3 13.0 0.00 0.00 0.00 67 1010.6
20260506114521 65 190 4.3 13.0 0.00 0.00 0.00 68 1010.7
20260506114003 65 182 6.1 13.0 0.00 0.00 0.00 67 1010.6
20260506113503 66 246 6.1 11.3 0.00 0.00 0.00 67 1010.6
20260506113008 66 204 5.2 9.6 0.00 0.00 0.00 68 1010.6
20260506112502 65 195 3.5 9.6 0.00 0.00 0.00 68 1010.7
20260506112007 65 148 5.2 13.9 0.00 0.00 0.00 69 1010.7
20260506111511 64 182 6.1 13.9 0.00 0.00 0.00 70 1010.6
20260506111004 64 241 3.5 7.8 0.00 0.00 0.00 71 1010.6
20260506110504 64 207 4.3 12.2 0.00 0.00 0.00 71 1010.7
20260506110019 64 196 5.2 12.2 0.00 0.00 0.00 71 1010.6
20260506105506 64 200 3.5 14.8 0.00 0.00 0.00 72 1010.5
20260506105012 64 163 5.2 14.8 0.00 0.00 0.00 72 1010.5
20260506104522 63 209 3.5 10.4 0.00 0.00 0.00 73 1010.5
20260506104010 63 182 3.5 8.7 0.00 0.00 0.00 73 1010.5
20260506103508 63 197 4.3 9.6 0.00 0.00 0.00 74 1010.4
20260506103025 63 189 2.6 9.6 0.00 0.00 0.00 74 1010.4
20260506102503 63 201 5.2 8.7 0.00 0.00 0.00 74 1010.5
20260506102010 63 215 1.7 6.1 0.00 0.00 0.00 74 1010.6
20260506101507 63 189 2.6 9.6 0.00 0.00 0.00 74 1010.4
20260506101002 63 212 3.5 9.6 0.00 0.00 0.00 74 1010.4
20260506100508 63 192 2.6 9.6 0.00 0.00 0.00 74 1010.4
20260506100015 63 175 3.5 9.6 0.00 0.00 0.00 74 1010.4
20260506095507 63 219 2.6 7.0 0.00 0.00 0.00 74 1010.3
20260506095008 63 254 2.6 7.8 0.00 0.00 0.00 74 1010.3
20260506094520 63 200 1.7 10.4 0.00 0.00 0.00 74 1010.3
20260506094006 63 217 3.5 10.4 0.00 0.00 0.00 74 1010.2
20260506093507 63 187 1.7 9.6 0.00 0.00 0.00 74 1010.2
20260506093032 63 191 4.3 8.7 0.00 0.00 0.00 75 1010.2
20260506092509 63 192 2.6 7.0 0.00 0.00 0.00 74 1010.3
20260506092012 63 218 2.6 7.8 0.00 0.00 0.00 74 1010.3
20260506091508 63 200 3.5 9.6 0.00 0.00 0.00 74 1010.3
20260506091003 63 213 3.5 9.6 0.00 0.00 0.00 74 1010.3
20260506090507 63 235 1.7 9.6 0.00 0.00 0.00 74 1010.4
20260506090021 63 190 3.5 9.6 0.00 0.00 0.00 74 1010.3
20260506085506 63 200 3.5 8.7 0.00 0.00 0.00 74 1010.4
20260506085004 63 202 4.3 8.7 0.00 0.00 0.00 74 1010.6
20260506084532 63 212 2.6 8.7 0.00 0.00 0.00 74 1010.6
20260506084008 64 202 2.6 8.7 0.00 0.00 0.00 74 1010.5
20260506083507 64 228 2.6 6.1 0.00 0.00 0.00 74 1010.6
20260506083023 64 213 3.5 7.0 0.00 0.00 0.00 74 1010.5
20260506082508 64 136 3.5 7.8 0.00 0.00 0.00 73 1010.6
20260506082011 64 194 3.5 8.7 0.00 0.00 0.00 73 1010.6
20260506081525 64 199 3.5 8.7 0.00 0.00 0.00 73 1010.7
20260506081009 64 208 3.5 7.8 0.00 0.00 0.00 73 1010.6
20260506080509 64 205 4.3 7.8 0.00 0.00 0.00 73 1010.7
20260506073508 65 198 4.3 7.8 0.00 0.00 0.00 72 1010.5
20260506073020 65 212 2.6 12.2 0.00 0.00 0.00 72 1010.6
20260506072508 65 185 4.3 11.3 0.00 0.00 0.00 71 1010.6
20260506072002 65 196 3.5 11.3 0.00 0.00 0.00 71 1010.6
20260506071507 65 186 3.5 11.3 0.00 0.00 0.00 71 1010.7
20260506071004 65 208 3.5 12.2 0.00 0.00 0.00 71 1010.7
20260506070504 65 150 6.1 12.2 0.00 0.00 0.00 70 1010.7
20260506062508 66 193 4.3 12.2 0.00 0.00 0.00 68 1010.8
20260506062010 67 205 7.0 12.2 0.00 0.00 0.00 68 1010.7
20260506061526 67 157 5.2 11.3 0.00 0.00 0.00 68 1010.7
20260506061009 67 210 2.6 12.2 0.00 0.00 0.00 67 1010.7
20260506060505 67 186 6.1 12.2 0.00 0.00 0.00 67 1010.8
20260506051007 67 207 2.6 10.4 0.00 0.00 0.00 66 1011.3
20260506050509 67 236 3.5 10.4 0.00 0.00 0.00 65 1011.3
20260506045004 67 184 2.6 9.6 0.00 0.00 0.00 66 1011.3
20260506044511 67 202 3.5 7.8 0.00 0.00 0.00 66 1011.3
20260506044003 67 191 1.7 7.8 0.00 0.00 0.00 66 1011.4
20260506043505 66 268 3.5 6.1 0.00 0.00 0.00 66 1011.3
20260506043021 66 186 2.6 6.1 0.00 0.00 0.00 66 1011.3
20260506042504 66 190 0.9 7.0 0.00 0.00 0.00 66 1011.3
20260506042007 66 213 4.3 7.0 0.00 0.00 0.00 65 1011.4
20260506041527 66 197 2.6 6.1 0.00 0.00 0.00 66 1011.3
20260506041006 66 150 1.7 7.8 0.00 0.00 0.00 65 1011.3
20260506040507 66 196 2.6 7.8 0.00 0.00 0.00 65 1011.3
20260506040032 66 202 2.6 7.8 0.00 0.00 0.00 65 1011.3
20260506035508 66 233 2.6 6.1 0.00 0.00 0.00 65 1011.2
20260506035009 66 167 3.5 7.0 0.00 0.00 0.00 65 1011.2
20260506034530 66 213 1.7 7.8 0.00 0.00 0.00 65 1011.2
20260506034003 66 213 2.6 9.6 0.00 0.00 0.00 64 1011.3
20260506033503 66 241 3.5 9.6 0.00 0.00 0.00 64 1011.3
20260506033012 66 159 3.5 9.6 0.00 0.00 0.00 64 1011.3
20260506032507 66 197 4.3 8.7 0.00 0.00 0.00 64 1011.3
20260506032006 66 203 4.3 8.7 0.00 0.00 0.00 64 1011.3
20260506031517 66 194 3.5 7.8 0.00 0.00 0.00 63 1011.2
20260506031008 67 221 2.6 9.6 0.00 0.00 0.00 63 1011.2
20260506030508 67 234 4.3 9.6 0.00 0.00 0.00 62 1011.2
20260506030022 67 182 3.5 7.8 0.00 0.00 0.00 62 1011.3
20260506025511 67 234 3.5 7.8 0.00 0.00 0.00 62 1011.2
20260506025009 67 233 2.6 8.7 0.00 0.00 0.00 62 1011.2
20260506024527 67 182 1.7 8.7 0.00 0.00 0.00 61 1011.3
20260506024014 67 203 4.3 8.7 0.00 0.00 0.00 61 1011.3
20260506023510 67 192 2.6 8.7 0.00 0.00 0.00 60 1011.4
20260506023016 67 231 3.5 12.2 0.00 0.00 0.00 60 1011.3
20260506022502 67 206 2.6 12.2 0.00 0.00 0.00 60 1011.3
20260506022003 68 177 4.3 11.3 0.00 0.00 0.00 59 1011.3
20260506021513 68 215 3.5 11.3 0.00 0.00 0.00 59 1011.3
20260506021011 68 209 4.3 10.4 0.00 0.00 0.00 59 1011.3
20260506020510 68 200 3.5 8.7 0.00 0.00 0.00 58 1011.3
20260506020022 68 196 3.5 8.7 0.00 0.00 0.00 58 1011.3
20260506015508 68 208 3.5 10.4 0.00 0.00 0.00 58 1011.2
20260506015008 68 200 4.3 8.7 0.00 0.00 0.00 57 1011.2
20260506014525 68 178 2.6 8.7 0.00 0.00 0.00 57 1011.2
20260506014008 68 205 2.6 8.7 0.00 0.00 0.00 58 1011.0
20260506013504 68 170 2.6 7.8 0.00 0.00 0.00 57 1011.0
20260506013009 69 180 2.6 12.2 0.00 0.00 0.00 57 1010.9
20260506012504 69 195 6.1 11.3 0.00 0.00 0.00 56 1010.9
20260506012006 69 192 2.6 7.8 0.00 0.00 0.00 57 1010.9
20260506011532 69 205 2.6 9.6 0.00 0.00 0.00 56 1010.8
20260506011008 69 221 3.5 9.6 0.00 0.00 0.00 56 1010.8
20260506010508 70 261 2.6 9.6 0.00 0.00 0.00 56 1010.9
20260506010019 70 195 4.3 9.6 0.00 0.00 0.00 55 1010.8
20260506005506 70 196 2.6 7.0 0.00 0.00 0.00 54 1010.9
20260506005007 71 203 2.6 7.8 0.00 0.00 0.00 54 1010.8
20260506004533 71 213 2.6 8.7 0.00 0.00 0.00 52 1010.7
20260506004012 72 227 4.3 11.3 0.00 0.00 0.00 51 1010.6
20260506003503 73 184 4.3 11.3 0.00 0.00 0.00 50 1010.5
20260506003004 73 186 3.5 10.4 0.00 0.00 0.00 49 1010.4
20260506002504 73 178 5.2 10.4 0.00 0.00 0.00 48 1010.2
20260506002004 73 275 4.3 9.6 0.00 0.00 0.00 47 1010.0
20260506001513 74 238 3.5 8.7 0.00 0.00 0.00 46 1010.0
20260506001004 74 205 4.3 8.7 0.00 0.00 0.00 46 1010.1
20260506000507 74 257 4.3 9.6 0.00 0.00 0.00 45 1010.0
20260506000014 74 128 4.3 10.4 0.00 0.00 0.00 45 1010.0
20260505235507 75 164 3.5 13.0 0.00 0.00 0.00 44 1009.9
20260505235006 75 192 4.3 13.0 0.00 0.00 0.00 42 1010.0
20260505234517 76 198 6.1 10.4 0.00 0.00 0.00 41 1009.9
20260505234012 76 213 4.3 10.4 0.00 0.00 0.00 41 1009.8
20260505233507 76 184 4.3 12.2 0.00 0.00 0.00 40 1009.8
20260505233030 76 212 4.3 12.2 0.00 0.00 0.00 40 1009.7
20260505232505 77 251 2.6 9.6 0.00 0.00 0.00 40 1009.7
20260505232003 77 223 2.6 7.8 0.00 0.00 0.00 39 1009.7
20260505231508 77 205 1.7 13.0 0.00 0.00 0.00 39 1009.6
20260505231004 78 254 4.3 13.0 0.00 0.00 0.00 37 1009.5
20260505230504 78 189 6.1 13.0 0.00 0.00 0.00 37 1009.4
20260505230011 79 269 4.3 13.0 0.00 0.00 0.00 37 1009.4
20260505225510 79 281 5.2 15.6 0.00 0.00 0.00 36 1009.4
20260505225006 79 204 7.8 16.5 0.00 0.00 0.00 36 1009.5
20260505224516 79 194 4.3 16.5 0.00 0.00 0.00 36 1009.3
20260505224007 80 185 7.0 16.5 0.00 0.00 0.00 35 1009.2
20260505223508 80 206 6.1 19.1 0.00 0.00 0.00 35 1009.2
20260505223022 80 180 7.0 19.1 0.00 0.00 0.00 35 1009.1
20260505222511 80 291 4.3 15.6 0.00 0.00 0.00 35 1009.1
20260505222014 80 252 7.0 14.8 0.00 0.00 0.00 34 1009.1
20260505221526 81 198 5.2 15.6 0.00 0.00 0.00 34 1008.9
20260505221006 81 190 8.7 17.4 0.00 0.00 0.00 33 1008.9
20260505220505 81 276 6.1 19.1 0.00 0.00 0.00 34 1008.8
20260505220022 81 220 9.6 19.1 0.00 0.00 0.00 33 1008.9
20260505215505 81 238 5.2 14.8 0.00 0.00 0.00 34 1009.0
20260505215006 82 181 6.1 14.8 0.00 0.00 0.00 33 1008.9
20260505214525 81 207 4.3 12.2 0.00 0.00 0.00 33 1008.9
20260505214008 82 290 5.2 20.9 0.00 0.00 0.00 33 1008.9
20260505213510 82 198 4.3 20.9 0.00 0.00 0.00 32 1008.8
20260505213024 82 207 7.8 20.9 0.00 0.00 0.00 32 1008.9
20260505212507 82 275 4.3 15.6 0.00 0.00 0.00 33 1008.7
20260505212011 82 128 7.0 11.3 0.00 0.00 0.00 33 1008.8
20260505211527 82 162 7.0 13.9 0.00 0.00 0.00 33 1008.6
20260505211007 83 233 6.1 13.9 0.00 0.00 0.00 32 1008.7
20260505210511 83 214 4.3 14.8 0.00 0.00 0.00 31 1008.5
20260505210008 82 136 7.8 14.8 0.00 0.00 0.00 31 1008.5
20260505205509 82 191 6.1 20.0 0.00 0.00 0.00 32 1008.5
20260505205007 83 184 7.8 20.0 0.00 0.00 0.00 30 1008.6
20260505204513 83 317 7.0 17.4 0.00 0.00 0.00 33 1008.4
20260505204006 83 226 6.1 17.4 0.00 0.00 0.00 31 1008.4
20260505203507 83 253 4.3 12.2 0.00 0.00 0.00 33 1008.5
20260505203020 83 278 6.1 16.5 0.00 0.00 0.00 33 1008.5
20260505202508 83 194 6.1 16.5 0.00 0.00 0.00 34 1008.4
20260505202010 83 271 7.0 22.6 0.00 0.00 0.00 33 1008.6
20260505201524 83 250 7.0 22.6 0.00 0.00 0.00 33 1008.6
20260505201008 82 242 7.8 16.5 0.00 0.00 0.00 34 1008.6
20260505200510 83 250 7.0 16.5 0.00 0.00 0.00 32 1008.7
20260505200024 83 184 7.8 18.2 0.00 0.00 0.00 33 1008.7
20260505195509 83 228 7.8 18.2 0.00 0.00 0.00 32 1008.7
20260505195004 83 221 6.1 20.0 0.00 0.00 0.00 34 1008.8
20260505194519 83 269 8.7 20.0 0.00 0.00 0.00 32 1008.8
20260505194011 83 175 7.0 19.1 0.00 0.00 0.00 32 1008.9
20260505193508 83 190 8.7 15.6 0.00 0.00 0.00 32 1008.9
20260505193025 83 260 6.1 16.5 0.00 0.00 0.00 35 1008.9
20260505192507 83 258 6.1 13.9 0.00 0.00 0.00 33 1009.0
20260505192006 83 307 5.2 15.6 0.00 0.00 0.00 33 1009.0
20260505191523 83 317 7.0 15.6 0.00 0.00 0.00 32 1009.1
20260505191007 83 249 7.0 19.1 0.00 0.00 0.00 37 1009.1
20260505190512 83 173 8.7 19.1 0.00 0.00 0.00 31 1009.2
20260505190026 83 195 6.1 16.5 0.00 0.00 0.00 32 1009.2
20260505185511 83 192 6.1 16.5 0.00 0.00 0.00 32 1009.2
20260505185007 83 206 5.2 19.1 0.00 0.00 0.00 34 1009.4
20260505184530 83 190 7.8 19.1 0.00 0.00 0.00 35 1009.4
20260505184006 83 137 7.0 15.6 0.00 0.00 0.00 35 1009.4
20260505183506 83 212 6.1 17.4 0.00 0.00 0.00 36 1009.4